Burlington, VT

1:07 PM EDT on April 25, 2017 (GMT -0400)
Burlington International

Weather History for KBTV - November, 2012

Change the Weather History Date:

Friday, November 2, 2012

  Actual Average Record
Temperature  
Mean Temperature 44 °F 43 °F  
Max Temperature 47 °F 51 °F 75 °F (1950)
Min Temperature 41 °F 35 °F 15 °F (1951)
Degree Days  
Heating Degree Days 21 22  
Month to date heating degree days 40 44  
Since 1 July heating degree days 553 785  
Cooling Degree Days 0 0  
Month to date cooling degree days 0 0  
Year to date cooling degree days 747 491  
Moisture  
Dew Point 37 °F    
Average Humidity 71    
Maximum Humidity 89    
Minimum Humidity 53    
Precipitation  
Precipitation 0.13 in 0.11 in 1.18 in (1946)
Month to date precipitation 0.19 0.23  
Year to date precipitation 31.59 31.54  
Snow  
Snow 0.00 in 0.00 in 1.40 in (1911)
Month to date snowfall 0.0 0.1  
Since 1 July snowfall T 0.4  
Since 1 September snowfall T 0.4  
Snow Depth 0.00 in    
Sea Level Pressure  
Sea Level Pressure 29.56 in    
Wind  
Wind Speed 5 mph (WNW)    
Max Wind Speed 14 mph    
Max Gust Speed 17 mph    
Visibility 10 miles    
Events Rain    
T = Trace of Precipitation, MM = Missing Value Source: NWS Daily Summary

Daily Weather History Graph

Daily Weather History Graph

Search for Another Location

Airport or City:

Trip Planner

Search our weather history database for the weather conditions in past years. The results will help you decide how hot, cold, wet, or windy it might be!

Date:

Astronomy

Nov. 02, 2012 Rise Set
Actual Time 7:31 AM EDT 5:39 PM EDT
Civil Twilight 7:01 AM EDT 6:10 PM EDT
Nautical Twilight 6:27 AM EDT 6:44 PM EDT
Astronomical Twilight 5:53 AM EDT 7:18 PM EDT
Moon 8:19 PM EDT (11/2) 10:55 AM EDT (11/2)
Length of Visible Light 11h 08m
Length of Day
10h 07m
Waning Gibbous, 87% of the Moon is Illuminated
Nov 2
Waning Gibbous
Nov 6
Last Quarter
Nov 13
New
Nov 20
First Quarter
Nov 28
Full

Hourly Weather History & Observations

Time (EDT) Temp. Windchill Dew Point Humidity Pressure Visibility Wind Dir Wind Speed Gust Speed Precip Events Conditions
12:41 AM 44.6 °F - 42.8 °F 93% 29.50 in 10.0 mi Calm Calm - 0.00 in   Overcast
12:54 AM 44.1 °F - 41.0 °F 89% 29.50 in 10.0 mi Calm Calm - 0.00 in   Overcast
1:26 AM 44.6 °F - 41.0 °F 87% 29.50 in 10.0 mi Calm Calm - 0.00 in   Overcast
1:38 AM 44.6 °F - 41.0 °F 87% 29.50 in 10.0 mi Calm Calm - 0.00 in   Overcast
1:54 AM 45.0 °F 43.5 °F 41.0 °F 86% 29.51 in 10.0 mi West 3.5 mph - 0.00 in   Overcast
2:20 AM 44.6 °F 43.1 °F 39.2 °F 81% 29.51 in 10.0 mi NNW 3.5 mph - 0.00 in Rain Light Rain
2:54 AM 44.1 °F - 39.9 °F 85% 29.51 in 10.0 mi Calm Calm - 0.01 in Rain Light Rain
3:43 AM 44.6 °F - 41.0 °F 87% 29.51 in 10.0 mi Calm Calm - 0.01 in Rain Light Rain
3:48 AM 44.6 °F - 41.0 °F 87% 29.51 in 8.0 mi Calm Calm - 0.01 in Rain Light Rain
3:54 AM 44.1 °F - 41.0 °F 89% 29.52 in 7.0 mi Calm Calm - 0.02 in Rain Light Rain
4:04 AM 44.6 °F - 41.0 °F 87% 29.51 in 7.0 mi Calm Calm - 0.01 in Rain Light Rain
4:30 AM 44.6 °F 43.1 °F 41.0 °F 87% 29.51 in 10.0 mi South 3.5 mph - 0.02 in Rain Light Rain
4:43 AM 44.6 °F 42.2 °F 41.0 °F 87% 29.51 in 10.0 mi South 4.6 mph - 0.02 in   Overcast
4:54 AM 44.1 °F - 41.0 °F 89% 29.52 in 10.0 mi Calm Calm - 0.02 in   Overcast
5:54 AM 43.0 °F - 39.9 °F 89% 29.52 in 10.0 mi Calm Calm - 0.00 in Rain Light Rain
6:24 AM 44.6 °F - 37.4 °F 76% 29.52 in 10.0 mi Calm Calm - 0.01 in Rain Light Rain
6:37 AM 42.8 °F 40.1 °F 37.4 °F 81% 29.52 in 10.0 mi NW 4.6 mph - 0.01 in Rain Light Rain
6:49 AM 42.8 °F - 37.4 °F 81% 29.53 in 6.0 mi Calm Calm - 0.02 in Rain Light Rain
6:54 AM 43.0 °F - 37.9 °F 82% 29.53 in 5.0 mi Calm Calm - 0.03 in Rain Light Rain
7:02 AM 42.8 °F - 37.4 °F 81% 29.53 in 10.0 mi Calm Calm - 0.00 in Rain Light Rain
7:54 AM 42.1 °F - 37.9 °F 85% 29.55 in 10.0 mi Calm Calm - 0.00 in Rain Light Rain
8:54 AM 43.0 °F - 37.9 °F 82% 29.56 in 10.0 mi Calm Calm - 0.01 in   Overcast
9:54 AM 44.1 °F 41.5 °F 35.1 °F 71% 29.57 in 10.0 mi NW 4.6 mph - 0.00 in   Overcast
10:54 AM 45.0 °F 40.6 °F 34.0 °F 65% 29.57 in 10.0 mi WNW 8.1 mph - N/A   Mostly Cloudy
11:54 AM 46.0 °F 43.9 °F 34.0 °F 63% 29.57 in 10.0 mi Variable 4.6 mph - N/A   Mostly Cloudy
12:54 PM 46.0 °F 43.1 °F 33.1 °F 61% 29.57 in 10.0 mi WNW 5.8 mph - N/A   Overcast
1:54 PM 46.0 °F 44.8 °F 32.0 °F 58% 29.57 in 10.0 mi WNW 3.5 mph - N/A   Overcast
2:54 PM 46.0 °F 41.4 °F 30.9 °F 56% 29.58 in 10.0 mi WNW 9.2 mph - N/A   Overcast
3:54 PM 46.0 °F 41.0 °F 32.0 °F 58% 29.59 in 10.0 mi WNW 10.4 mph - 0.00 in   Overcast
4:54 PM 44.1 °F 39.0 °F 33.1 °F 65% 29.60 in 10.0 mi NW 9.2 mph - N/A   Overcast
5:54 PM 44.1 °F 38.6 °F 33.1 °F 65% 29.62 in 10.0 mi NW 10.4 mph - N/A   Overcast
6:54 PM 42.1 °F 39.2 °F 34.0 °F 73% 29.65 in 10.0 mi NW 4.6 mph - 0.00 in Rain Light Rain
7:54 PM 41.0 °F 37.1 °F 35.1 °F 79% 29.66 in 10.0 mi WNW 5.8 mph - 0.01 in Rain Light Rain
8:54 PM 41.0 °F 38.0 °F 35.1 °F 79% 29.67 in 10.0 mi WNW 4.6 mph - 0.01 in Rain Light Rain
9:54 PM 41.0 °F 36.4 °F 35.1 °F 79% 29.67 in 10.0 mi WNW 6.9 mph - 0.01 in Rain Light Rain
10:54 PM 41.0 °F 35.8 °F 36.0 °F 82% 29.68 in 10.0 mi WNW 8.1 mph - 0.00 in Rain Light Rain
11:54 PM 42.1 °F 37.1 °F 36.0 °F 79% 29.68 in 10.0 mi NW 8.1 mph - 0.01 in Rain Light Rain